This demonstration page uses our WeatherBlox Daily Observations layout. Learn more.

Left ArrowRight Arrow

47.50024, -111.30081

Hourly Observations for March 5, 2015

Temp ( °F °C ) Dew Point ( °F °C ) Humidity (%) Winds ( mph kmh ) Pressure ( in mb ) Visibility ( mi km ) Precip ( " mm )
12:53 am 00:53 Clear 26 -3.3 14 -10 60 60 SW 14 22 30.17 1022 10 16 0.00 0.00
1:53 am 01:53 Clear 27 -2.8 14 -10 58 58 SW 13 20 30.17 1022 10 16 0.00 0.00
2:53 am 02:53 Clear 26 -3.3 13 -10.6 57 57 SW 12 19 30.19 1022 10 16 0.00 0.00
3:53 am 03:53 Clear 28 -2.2 13 -10.6 53 53 SSW 14 22 30.18 1022 10 16 0.00 0.00
4:53 am 04:53 Clear 27 -2.8 12 -11.1 53 53 SW 15 24 30.19 1022 10 16 0.00 0.00
5:53 am 05:53 Clear 27 -2.8 12 -11.1 53 53 SW 16 26 30.21 1023 10 16 0.00 0.00
6:53 am 06:53 Clear 26 -3.3 12 -11.1 55 55 SSW 16 26 30.23 1024 10 16 0.00 0.00
7:53 am 07:53 Sunny 28 -2.2 12 -11.1 51 51 SW 12 19 30.24 1024 10 16 0.00 0.00
8:53 am 08:53 Sunny 36 2.2 12 -11.1 37 37 SW 15 24 30.24 1024 10 16 0.00 0.00
9:53 am 09:53 Sunny 41 5 9 -12.8 27 27 SW 20 31 30.22 1023 10 16 0.00 0.00
10:53 am 10:53 Sunny 46 7.8 10 -12.2 23 23 WSW 20 31 30.21 1023 10 16 0.00 0.00
11:53 am 11:53 Sunny 49 9.4 8 -13.3 19 19 WSW 23 37 30.19 1022 10 16 0.00 0.00
12:53 pm 12:53 Sunny 51 10.6 8 -13.3 17 17 WSW 22 35 30.17 1022 10 16 0.00 0.00
1:53 pm 13:53 Sunny 51 10.6 8 -13.3 17 17 WSW 25 41 30.16 1022 10 16 0.00 0.00
2:53 pm 14:53 Mostly Cloudy 48 8.9 15 -9.4 27 27 WSW 28 44 30.17 1022 10 16 0.00 0.00
3:53 pm 15:53 Cloudy 49 9.4 13 -10.6 23 23 SW 23 37 30.18 1022 10 16 0.00 0.00
4:53 pm 16:53 Sunny 47 8.3 9 -12.8 21 21 SW 21 33 30.19 1023 10 16 0.00 0.00
5:53 pm 17:53 Sunny 43 6.1 11 -11.7 27 27 SW 16 26 30.20 1023 10 16 0.00 0.00
6:53 pm 18:53 Clear 40 4.4 13 -10.6 33 33 SW 14 22 30.21 1023 10 16 0.00 0.00
7:53 pm 19:53 Clear 37 2.8 14 -10 39 39 WSW 12 19 30.22 1023 10 16 0.00 0.00
8:53 pm 20:53 Clear 35 1.7 14 -10 42 42 WSW 12 19 30.21 1023 10 16 0.00 0.00
9:53 pm 21:53 Clear 36 2.2 15 -9.4 42 42 WSW 10 17 30.19 1023 10 16 0.00 0.00
10:53 pm 22:53 Clear 34 1.1 15 -9.4 46 46 SW 10 17 30.19 1022 10 16 0.00 0.00
11:53 pm 23:53 Clear 34 1.1 15 -9.4 46 46 WSW 9 15 30.18 1022 10 16 0.00 0.00

Powered by AerisWeather